Deep River, CT

7:15 PM EDT on August 24, 2016 (GMT -0400)
Chester

Weather History for KSNC - March, 2013

Change the Weather History Date:

Tuesday, March 5, 2013

  Actual Average (KHVN) Record (KHVN)
Temperature  
Mean Temperature 37 °F -  
Max Temperature 44 °F 41 °F 63 °F (1974)
Min Temperature 30 °F 27 °F 10 °F (2009)
Degree Days  
Heating Degree Days 28    
Moisture  
Dew Point 26 °F    
Average Humidity 61    
Maximum Humidity 81    
Minimum Humidity 49    
Precipitation  
Precipitation 0.00 in - - ()
Sea Level Pressure  
Sea Level Pressure 29.95 in    
Wind  
Wind Speed 10 mph (North)    
Max Wind Speed 17 mph    
Max Gust Speed 25 mph    
Visibility 10 miles    
Events      
Averages and records for this station are not official NWS values.
T = Trace of Precipitation, MM = Missing Value Source: NWS Daily Summary

Daily Weather History Graph

Daily Weather History Graph

Search for Another Location

Airport or City:

Trip Planner

Search our weather history database for the weather conditions in past years. The results will help you decide how hot, cold, wet, or windy it might be!

Date:

Astronomy

Mar. 05, 2013 Rise Set
Actual Time 6:17 AM EST 5:45 PM EST
Civil Twilight 5:50 AM EST 6:13 PM EST
Nautical Twilight 5:18 AM EST 6:45 PM EST
Astronomical Twilight 4:46 AM EST 7:17 PM EST
Moon 1:30 AM EST (3/5) 11:18 AM EST (3/5)
Length of Visible Light 12h 23m
Length of Day
11h 27m
Last Quarter, 41% of the Moon is Illuminated
Mar 5
Last Quarter
Mar 11
New
Mar 19
First Quarter
Mar 27
Full
Apr 3
Last Quarter

Hourly Weather History & Observations

Time (EST) Temp. Windchill Dew Point Humidity Pressure Visibility Wind Dir Wind Speed Gust Speed Precip Events Conditions
12:15 AM 32.0 °F 22.5 °F 21.2 °F 64% 29.82 in 10.0 mi NNW 12.7 mph 23.0 mph N/A   Partly Cloudy
12:35 AM 32.0 °F 22.1 °F 21.2 °F 64% 29.82 in 10.0 mi NNW 13.8 mph 21.9 mph N/A   Clear
1:35 AM 32.0 °F 23.0 °F 21.2 °F 64% 29.83 in 10.0 mi NNW 11.5 mph 20.7 mph N/A   Clear
1:55 AM 32.0 °F 23.0 °F 21.2 °F 64% 29.83 in 10.0 mi NNW 11.5 mph 19.6 mph N/A   Clear
2:15 AM 32.0 °F 23.6 °F 21.2 °F 64% 29.84 in 10.0 mi NNW 10.4 mph 23.0 mph N/A   Clear
2:35 AM 32.0 °F 22.5 °F 23.0 °F 69% 29.84 in 10.0 mi NNW 12.7 mph 20.7 mph N/A   Clear
2:55 AM 32.0 °F 23.0 °F 21.2 °F 64% 29.84 in 10.0 mi NNW 11.5 mph 24.2 mph N/A   Clear
3:15 AM 32.0 °F 21.6 °F 23.0 °F 69% 29.85 in 10.0 mi NNW 15.0 mph 20.7 mph N/A   Clear
3:35 AM 30.2 °F 19.8 °F 23.0 °F 75% 29.86 in 10.0 mi NNW 13.8 mph 24.2 mph N/A   Clear
3:55 AM 30.2 °F 20.8 °F 23.0 °F 75% 29.87 in 10.0 mi NNW 11.5 mph 20.7 mph N/A   Clear
4:35 AM 30.2 °F 20.2 °F 23.0 °F 75% 29.88 in 10.0 mi NNW 12.7 mph 17.3 mph N/A   Clear
4:55 AM 30.2 °F 19.3 °F 23.0 °F 75% 29.89 in 10.0 mi NNW 15.0 mph - N/A   Clear
5:15 AM 32.0 °F 23.0 °F 23.0 °F 69% 29.89 in 10.0 mi NNW 11.5 mph 23.0 mph N/A   Clear
5:35 AM 32.0 °F 22.1 °F 23.0 °F 69% 29.90 in 10.0 mi NNW 13.8 mph 20.7 mph N/A   Clear
5:55 AM 32.0 °F 21.6 °F 23.0 °F 69% 29.91 in 10.0 mi North 15.0 mph 20.7 mph N/A   Clear
6:15 AM 32.0 °F 21.6 °F 23.0 °F 69% 29.91 in 10.0 mi North 15.0 mph 21.9 mph N/A   Clear
6:35 AM 32.0 °F 21.6 °F 23.0 °F 69% 29.92 in 10.0 mi North 15.0 mph 24.2 mph N/A   Clear
7:15 AM 32.0 °F 22.1 °F 23.0 °F 69% 29.93 in 10.0 mi North 13.8 mph 25.3 mph N/A   Clear
7:35 AM 33.8 °F 23.9 °F 23.0 °F 65% 29.93 in 10.0 mi North 15.0 mph 21.9 mph N/A   Clear
7:55 AM 33.8 °F 23.2 °F 23.0 °F 65% 29.94 in 10.0 mi North 17.3 mph 24.2 mph N/A   Clear
8:15 AM 35.6 °F 27.1 °F 23.0 °F 60% 29.95 in 10.0 mi North 12.7 mph 23.0 mph N/A   Clear
8:35 AM 35.6 °F 26.2 °F 23.0 °F 60% 29.95 in 10.0 mi North 15.0 mph 25.3 mph N/A   Clear
8:55 AM 35.6 °F 26.6 °F 23.0 °F 60% 29.96 in 10.0 mi North 13.8 mph 24.2 mph N/A   Clear
9:15 AM 37.4 °F 28.9 °F 23.0 °F 56% 29.96 in 10.0 mi North 13.8 mph 21.9 mph N/A   Clear
9:35 AM 39.2 °F 32.0 °F 23.0 °F 52% 29.95 in 10.0 mi North 11.5 mph 18.4 mph N/A   Clear
9:55 AM 37.4 °F 29.3 °F 23.0 °F 56% 29.95 in 10.0 mi NNW 12.7 mph 20.7 mph N/A   Clear
10:15 AM 39.2 °F 32.0 °F 24.8 °F 56% 29.95 in 10.0 mi North 11.5 mph - N/A   Clear
10:35 AM 39.2 °F 33.0 °F 24.8 °F 56% 29.95 in 10.0 mi NNE 9.2 mph 16.1 mph N/A   Partly Cloudy
10:55 AM 41.0 °F 34.7 °F 24.8 °F 53% 29.95 in 10.0 mi North 10.4 mph 16.1 mph N/A   Partly Cloudy
11:15 AM 41.0 °F 35.2 °F 24.8 °F 53% 29.95 in 10.0 mi NNW 9.2 mph - N/A   Clear
11:35 AM 41.0 °F 36.4 °F 24.8 °F 53% 29.95 in 10.0 mi North 6.9 mph - N/A   Clear
11:55 AM 42.8 °F 38.6 °F 24.8 °F 49% 29.94 in 10.0 mi North 6.9 mph - N/A   Clear
12:15 PM 42.8 °F 38.0 °F 26.6 °F 53% 29.94 in 10.0 mi NNE 8.1 mph - N/A   Clear
12:35 PM 44.6 °F 40.2 °F 26.6 °F 49% 29.94 in 10.0 mi North 8.1 mph - N/A   Clear
12:55 PM 44.6 °F 39.7 °F 26.6 °F 49% 29.95 in 10.0 mi NNW 9.2 mph 17.3 mph N/A   Clear
1:15 PM 44.6 °F 40.7 °F 26.6 °F 49% 29.95 in 10.0 mi North 6.9 mph - N/A   Clear
1:35 PM 44.6 °F 41.4 °F 26.6 °F 49% 29.95 in 10.0 mi NNE 5.8 mph - N/A   Clear
1:55 PM 44.6 °F 40.2 °F 26.6 °F 49% 29.96 in 10.0 mi NNE 8.1 mph - N/A   Clear
2:15 PM 44.6 °F 40.2 °F 26.6 °F 49% 29.96 in 10.0 mi North 8.1 mph - N/A   Clear
2:35 PM 44.6 °F 41.4 °F 26.6 °F 49% 29.97 in 10.0 mi NNE 5.8 mph - N/A   Mostly Cloudy
2:55 PM 44.6 °F 40.7 °F 26.6 °F 49% 29.97 in 10.0 mi North 6.9 mph - N/A   Overcast
3:15 PM 44.6 °F 41.4 °F 26.6 °F 49% 29.97 in 10.0 mi North 5.8 mph - N/A   Overcast
3:35 PM 44.6 °F 40.7 °F 26.6 °F 49% 29.98 in 10.0 mi NE 6.9 mph - N/A   Overcast
3:55 PM 44.6 °F 40.7 °F 26.6 °F 49% 29.98 in 10.0 mi NE 6.9 mph - N/A   Overcast
4:15 PM 44.6 °F 40.7 °F 26.6 °F 49% 29.98 in 10.0 mi NNE 6.9 mph - N/A   Overcast
4:35 PM 44.6 °F 40.7 °F 26.6 °F 49% 29.98 in 10.0 mi NNE 6.9 mph - N/A   Overcast
4:55 PM 44.6 °F 43.1 °F 26.6 °F 49% 29.98 in 10.0 mi NE 3.5 mph - N/A   Overcast
5:15 PM 42.8 °F 40.1 °F 26.6 °F 53% 29.99 in 10.0 mi NNE 4.6 mph - N/A   Overcast
5:35 PM 42.8 °F - 26.6 °F 53% 29.99 in 10.0 mi Calm Calm - N/A   Overcast
5:55 PM 42.8 °F - 26.6 °F 53% 30.00 in 10.0 mi Calm Calm - N/A   Overcast
6:15 PM 42.8 °F 41.1 °F 26.6 °F 53% 30.01 in 10.0 mi NE 3.5 mph - N/A   Overcast
6:35 PM 42.8 °F 41.1 °F 26.6 °F 53% 30.01 in 10.0 mi ENE 3.5 mph - N/A   Overcast
6:55 PM 42.8 °F 39.3 °F 26.6 °F 53% 30.02 in 10.0 mi East 5.8 mph - N/A   Overcast
7:15 PM 41.0 °F 36.4 °F 28.4 °F 61% 30.02 in 10.0 mi SE 6.9 mph - N/A   Overcast
7:35 PM 41.0 °F 37.1 °F 30.2 °F 65% 30.02 in 10.0 mi SSE 5.8 mph - N/A   Overcast
7:55 PM 39.2 °F 37.0 °F 28.4 °F 65% 30.02 in 10.0 mi South 3.5 mph - N/A   Overcast
8:15 PM 39.2 °F - 28.4 °F 65% 30.03 in 10.0 mi Calm Calm - N/A   Overcast
8:35 PM 39.2 °F - 28.4 °F 65% 30.03 in 10.0 mi Calm Calm - N/A   Overcast
8:55 PM 39.2 °F - 30.2 °F 70% 30.04 in 10.0 mi Calm Calm - N/A   Overcast
9:15 PM 37.4 °F - 30.2 °F 75% 30.03 in 10.0 mi Calm Calm - N/A   Overcast
9:35 PM 37.4 °F 34.9 °F 30.2 °F 75% 30.03 in 10.0 mi ENE 3.5 mph - N/A   Mostly Cloudy
9:55 PM 37.4 °F - 30.2 °F 75% 30.03 in 10.0 mi Calm Calm - N/A   Partly Cloudy
10:15 PM 37.4 °F - 30.2 °F 75% 30.03 in 10.0 mi Calm Calm - N/A   Scattered Clouds
10:35 PM 37.4 °F - 30.2 °F 75% 30.02 in 10.0 mi Calm Calm - N/A   Overcast
10:55 PM 35.6 °F - 30.2 °F 81% 30.02 in 10.0 mi Calm Calm - N/A   Overcast
11:15 PM 37.4 °F 34.9 °F 30.2 °F 75% 30.02 in 10.0 mi East 3.5 mph - N/A   Overcast
11:35 PM 37.4 °F 34.9 °F 30.2 °F 75% 30.02 in 10.0 mi ENE 3.5 mph - N/A   Overcast
11:55 PM 37.4 °F 33.8 °F 30.2 °F 75% 30.01 in 10.0 mi East 4.6 mph - N/A   Overcast